Houston, TX

8:42 PM CST on February 11, 2016 (GMT -0600)
Ellington

Weather History for KEFD - October, 2012

Change the Weather History Date:

Tuesday, October 16, 2012

  Actual Average Record
Temperature  
Mean Temperature 74 °F -  
Max Temperature 84 °F 78 °F 87 °F (1999)
Min Temperature 64 °F 61 °F 51 °F (2002)
Cooling Degree Days 9    
Growing Degree Days 24 (Base 50)    
Moisture  
Dew Point 60 °F    
Average Humidity 73    
Maximum Humidity 94    
Minimum Humidity 48    
Precipitation  
Precipitation 0.00 in - - ()
Sea Level Pressure  
Sea Level Pressure 29.91 in    
Wind  
Wind Speed 2 mph (NE)    
Max Wind Speed 17 mph    
Max Gust Speed -    
Visibility 8 miles    
Events Rain    
Averages and records for this station are not official NWS values.
T = Trace of Precipitation, MM = Missing Value Source: NWS Daily Summary

Daily Weather History Graph

Daily Weather History Graph

Search for Another Location

Airport or City:

Trip Planner

Search our weather history database for the weather conditions in past years. The results will help you decide how hot, cold, wet, or windy it might be!

Date:

Astronomy

Oct. 16, 2012 Rise Set
Actual Time 7:23 AM CDT 6:48 PM CDT
Civil Twilight 6:59 AM CDT 7:12 PM CDT
Nautical Twilight 6:31 AM CDT 7:40 PM CDT
Astronomical Twilight 6:03 AM CDT 8:07 PM CDT
Moon 8:37 AM CDT (10/16) 7:44 PM CDT (10/16)
Length of Visible Light 12h 13m
Length of Day
11h 25m
New Moon, 2% of the Moon is Illuminated
Oct 16
New Moon
Oct 21
First Quarter
Oct 29
Full
Nov 6
Last Quarter
Nov 13
New

Hourly Weather History & Observations

Time (CDT) Temp. Heat Index Dew Point Humidity Pressure Visibility Wind Dir Wind Speed Gust Speed Precip Events Conditions
12:50 AM 68.0 °F - 51.8 °F 56% 29.99 in 10.0 mi Calm Calm - N/A   Scattered Clouds
1:50 AM 66.2 °F - 51.8 °F 60% 29.98 in 10.0 mi Calm Calm - N/A   Scattered Clouds
2:50 AM 64.4 °F - 51.8 °F 64% 29.97 in 10.0 mi Calm Calm - N/A   Scattered Clouds
3:50 AM 64.4 °F - 53.6 °F 68% 29.95 in 10.0 mi Calm Calm - N/A   Partly Cloudy
4:50 AM 64.4 °F - 53.6 °F 68% 29.94 in 10.0 mi Calm Calm - N/A   Mostly Cloudy
5:50 AM 64.4 °F - 53.6 °F 68% 29.94 in 10.0 mi Calm Calm - N/A   Mostly Cloudy
6:50 AM 64.4 °F - 59.0 °F 83% 29.95 in 10.0 mi Calm Calm - N/A   Mostly Cloudy
7:50 AM 68.0 °F - 62.6 °F 83% 29.94 in 10.0 mi Calm Calm - N/A   Mostly Cloudy
8:50 AM 69.8 °F - 64.4 °F 83% 29.95 in 10.0 mi Calm Calm - N/A   Mostly Cloudy
9:50 AM 75.2 °F - 66.2 °F 73% 29.95 in 10.0 mi ESE 3.5 mph - N/A   Mostly Cloudy
10:50 AM 78.8 °F - 66.2 °F 65% 29.94 in 10.0 mi ESE 3.5 mph - N/A   Overcast
11:55 AM 82.4 °F 85.4 °F 68.0 °F 62% 29.94 in 10.0 mi Calm Calm - N/A   Mostly Cloudy
12:50 PM 84.2 °F 85.6 °F 64.4 °F 51% 29.92 in 10.0 mi Calm Calm - N/A   Mostly Cloudy
1:50 PM 82.4 °F 82.9 °F 60.8 °F 48% 29.89 in 10.0 mi Calm Calm - N/A   Overcast
2:50 PM 82.4 °F 82.9 °F 60.8 °F 48% 29.87 in 10.0 mi West 5.8 mph - N/A   Mostly Cloudy
3:50 PM 73.4 °F - 62.6 °F 69% 29.88 in 6.0 mi NW 17.3 mph - N/A Rain Light Rain
4:50 PM 66.2 °F - 60.8 °F 83% 29.87 in 5.0 mi North 11.5 mph - N/A Rain Light Rain
5:50 PM 66.2 °F - 60.8 °F 83% 29.87 in 6.0 mi NNW 5.8 mph - N/A Rain Light Rain
6:50 PM 64.4 °F - 60.8 °F 88% 29.89 in 5.0 mi WNW 4.6 mph - N/A Rain Light Rain
7:50 PM 64.4 °F - 60.8 °F 88% 29.88 in 5.0 mi NNE 5.8 mph - N/A Rain Light Rain
8:50 PM 64.4 °F - 60.8 °F 88% 29.89 in 6.0 mi Calm Calm - N/A Rain Light Rain
9:50 PM 64.4 °F - 62.6 °F 94% 29.87 in 5.0 mi SE 5.8 mph - N/A Rain Light Rain
10:50 PM 64.4 °F - 62.6 °F 94% 29.84 in 7.0 mi SE 6.9 mph - N/A   Mostly Cloudy
11:50 PM 64.4 °F - 62.6 °F 94% 29.83 in 10.0 mi SSE 8.1 mph - N/A   Mostly Cloudy